Weather in Vysha

Russia / Republic of Mordovia     53°50′56″N   42°22′38″E
temp.,
°C
wind,
m/s
gust,
m/s
humid.,
%
clouds,
%
prec.,
mm/h
press.,
hPa
HPBL,
m
4 march, thu
thu400:00−3wsw51292100 0.1 1010533
03:00−2wsw51293100 0.3 1008590
06:00−2wsw61293100 0.1 1005651
09:000wsw81695100 0.6 10031012
12:000wsw71588100 0.1 1002839
15:00+1wsw71384100 0.1 10011031
18:00−1wsw51194100 0.1 1001680
21:00−2wsw41097100 0.8 1001512
5 march, fri
fri500:00−2w3798100 0.9 1000327
03:00−3n2398100 2.2 1001171
06:00−4nnw3697100 0.9 1003264
09:00−4nnw3693100 1.1 1005397
12:00−2nw348483 0.0 1008719
15:00−2wnw358191 0.1 1010782
18:00−6w349160 0.0 101185
21:00−8w369542 0.0 1014116
6 march, sat
sat600:00−10wnw239444 0.0 101560
03:00−11wnw239267 0.0 101625
06:00−12n129463 0.0 101621
09:00−9ene119071 0.0 1017108
12:00−6ese218326 0.0 1016369
15:00−5ese218362 0.0 1015426
18:00−9se229184 0.0 101529
21:00−10ssw229392 0.0 101635
7 march, sun
sun700:00−9sw249695 0.1 1015109
03:00−10wsw359792 0.2 1015112
06:00−13wsw359680 0.0 101495
09:00−9sw5128452 0.0 1012532
12:00−6sw71380100 0.0 1009909
15:00−4sw91675100 0.0 10051249
18:00−4sw81693100 1.4 10011261
21:00−3w71390100 3.5 10001011
8 march, mon
mon800:00−9w379168 0.0 1002154
03:00−11sw488034 0.0 1003143
06:00−11ssw410790 0.0 1001185
09:00−5sw5109037 0.1 998802
12:00−3wsw81380100 0.5 9971466
15:00−7w9147888 1.1 10001659
18:00−8wnw81578100 0.2 10051137
21:00−9wnw61386100 0.3 1009748